CAPE
768 833 800 809 736 641 665 784 743 615 509 432 403 325 232 152 125 71 39 19 48 0 0 0 0 0 0 0 0 0 0 0 0 200 585 505 273 376 276 384 507 343 531
627 725 654 714 693 720 957 895 822 673 577 444 404 316 214 143 123 100 65 115 43 0 0 0 0 0 0 0 0 4 0 0 124 309 590 338 286 493 333 419 694 403 421
657 644 543 553 693 896 1075 971 774 613 377 229 189 223 154 55 85 161 159 181 191 16 0 0 0 0 0 0 75 108 294 430 342 502 481 35 59 356 296 296 513 350 427
535 508 394 575 755 1055 1012 888 550 367 253 245 174 97 130 75 95 274 239 243 278 42 6 0 0 0 0 63 151 105 194 105 165 208 29 52 36 139 133 47 0 0 51
252 276 416 593 859 1074 909 686 492 471 368 317 221 105 109 130 108 199 304 330 249 46 26 10 4 0 82 169 148 41 56 10 0 0 75 115 90 91 117 89 50 0 0
241 323 412 536 960 899 838 652 537 395 288 238 192 208 217 145 164 345 358 329 92 52 29 27 23 53 184 205 187 62 47 0 0 0 0 47 71 213 58 139 84 41 78
241 154 157 297 397 436 632 632 494 350 261 195 156 263 293 287 230 398 369 353 234 103 106 93 103 249 182 305 239 94 57 0 0 0 0 35 88 100 47 58 79 73 51
95 113 145 223 179 231 358 489 375 329 237 160 180 304 344 333 345 423 446 452 434 378 286 182 123 127 112 177 214 113 3 0 0 0 0 0 371 125 103 139 279 624 351
78 86 67 13 55 184 226 294 340 269 175 198 223 267 295 312 359 425 454 459 346 210 54 20 31 41 64 95 168 135 0 0 0 0 0 0 542 138 118 187 270 341 372
81 35 0 21 1 105 254 272 212 208 149 182 224 221 210 265 350 385 326 279 185 4 0 3 29 19 46 150 137 53 0 0 0 0 0 0 173 0 0 93 51 5 23
104 31 2 17 132 136 251 192 201 182 108 124 169 148 56 45 49 66 32 60 39 3 0 8 33 77 0 15 27 0 0 0 0 0 0 25 28 0 0 20 0 0 0
1 2 17 17 145 171 176 123 50 59 24 33 67 101 74 33 16 16 55 25 23 35 47 12 41 0 0 0 0 0 0 0 0 0 0 0 14 0 0 0 5 0 0
0 0 0 53 98 149 84 32 15 6 104 124 150 179 97 26 65 55 61 13 0 0 0 0 0 0 0 0 0 0 0 0 0 0 0 0 7 0 0 1 16 14 4
34 8 58 113 247 190 36 3 28 34 132 260 220 175 164 139 80 11 0 8 8 1 0 1 0 0 0 5 0 0 0 0 0 0 0 0 0 0 6 13 36 17 3
184 123 39 184 306 156 18 18 73 243 322 366 286 214 184 116 3 0 0 0 0 0 3 0 0 0 0 0 0 0 0 0 0 0 0 0 5 9 26 59 22 0 0
322 330 246 284 347 124 74 76 180 334 435 422 398 324 263 25 0 0 0 0 0 0 0 0 0 0 0 0 0 0 0 0 0 0 0 0 0 8 27 14 1 0 0
419 314 374 314 317 148 175 390 491 484 369 353 271 165 85 98 8 0 0 0 0 0 0 0 0 0 0 0 0 0 0 0 0 0 0 0 0 1 11 0 0 0 0
445 285 123 177 206 229 287 282 299 201 244 331 269 186 83 8 0 0 0 0 0 0 0 0 0 0 0 0 0 0 0 0 0 0 0 0 0 0 0 6 0 0 0
458 333 303 306 284 244 226 146 15 30 4 0 0 0 0 0 0 0 0 0 0 0 0 0 0 0 0 0 0 0 0 0 0 0 0 0 0 0 0 0 0 0 0
286 193 354 324 265 225 135 33 13 0 0 0 0 0 0 0 0 0 0 0 0 0 0 0 0 0 0 0 0 0 0 0 0 0 0 0 0 0 0 0 0 1 3
179 282 482 497 414 319 24 22 24 0 0 0 0 0 0 0 0 0 0 0 0 0 0 0 0 0 0 0 0 0 0 0 0 0 0 0 0 0 0 0 0 0 0
309 365 648 644 500 217 10 7 8 0 0 0 0 0 0 0 0 0 0 0 0 0 0 0 0 0 0 0 0 0 0 0 0 0 0 0 0 0 0 0 0 0 0
420 562 707 542 248 123 99 48 20 0 0 0 0 0 0 0 0 0 0 0 0 0 0 0 0 0 0 0 0 0 0 0 0 0 0 0 0 0 0 0 0 0 0
536 722 671 407 220 113 100 184 95 0 0 0 0 0 0 0 0 0 0 0 0 0 0 0 0 0 0 0 0 0 0 0 0 0 0 0 0 0 0 0 0 0 0
616 738 648 529 418 145 243 358 71 1 0 0 0 0 0 0 0 0 0 0 0 0 0 0 0 0 0 0 0 0 0 0 0 0 0 0 0 0 0 0 0 0 0
658 718 607 684 588 391 393 283 29 13 2 3 0 0 0 0 0 0 0 0 0 0 0 0 0 0 0 0 0 0 0 0 0 0 0 0 0 0 0 0 0 0 0
CIN
-17 -3 -12 -10 -7 -3 0 -8 0 -1 -12 -37 -51 -56 -78 -106 -87 -90 -96 -79 -75 0 0 0 0 0 0 0 0 0 0 0 0 -20 -2 -2 -4 0 -9 -2 -1 -5 -2
-49 -25 -47 -31 -4 0 0 0 0 0 -4 -31 -47 -58 -78 -101 -83 -89 -104 -75 -113 0 0 0 0 0 0 0 0 -19 0 0 -91 -40 -8 -14 -4 0 0 0 -1 0 0
-22 -12 -30 -55 -18 0 0 0 0 0 -22 -69 -91 -75 -114 -147 -126 -88 -87 -77 -72 -135 0 0 0 0 0 0 -103 -96 -83 -65 -62 -32 -23 -44 -21 -1 -1 0 -3 0 0
-35 -2 -21 -5 -4 0 0 0 -2 -9 -39 -48 -94 -140 -127 -136 -133 -69 -86 -81 -66 -144 -252 0 0 0 0 -142 -76 -105 -76 -103 -23 -19 -42 -50 -51 -25 -26 -11 0 0 -5
-39 -12 -9 -2 0 0 0 0 -5 -2 -15 -26 -82 -145 -150 -136 -155 -124 -89 -76 -88 -173 -214 -219 -221 0 -94 -110 -60 -86 -73 -88 0 0 -51 -56 -48 -33 -28 -19 -18 0 0
-4 -2 -8 -12 0 -1 0 -3 -15 -25 -50 -73 -109 -110 -109 -142 -142 -80 -83 -85 -140 -153 -179 -172 -166 -142 -106 -110 -87 -74 -120 0 0 0 -1 -68 -40 -20 -30 -25 -15 -22 -16
-2 -19 -32 -22 -23 -31 -7 -13 -12 -35 -78 -111 -123 -102 -92 -106 -143 -91 -103 -98 -111 -153 -146 -147 -133 -88 -101 -75 -76 -85 -124 0 0 0 0 -56 -40 -23 -30 -25 -15 -14 -17
-15 -14 -10 -4 -4 -4 -19 -17 -50 -81 -117 -111 -123 -93 -93 -95 -102 -80 -66 -59 -64 -74 -84 -94 -124 -108 -120 -97 -91 -81 -33 0 0 0 0 0 -7 -10 -16 -14 -3 0 -2
-6 0 0 0 0 -1 -10 -58 -85 -102 -111 -116 -128 -125 -120 -109 -85 -64 -58 -66 -81 -98 -161 -197 -154 -133 -102 -101 -91 -98 0 0 0 0 0 0 0 -3 -10 -12 -3 0 0
-34 0 0 -5 -3 -13 -29 -46 -95 -108 -148 -150 -138 -135 -133 -105 -80 -63 -92 -95 -93 -188 0 -71 -131 -129 -110 -97 -93 -123 0 0 0 0 0 0 -2 0 0 -12 -17 -6 -7
-2 -13 -7 -95 -18 -32 -25 -81 -101 -98 -144 -145 -141 -174 -241 -236 -235 -169 -181 -139 -177 -102 0 -85 -110 -102 0 -65 -86 0 0 0 0 0 0 -20 -10 0 0 -12 0 0 0
-14 0 -117 -59 -17 -45 -64 -97 -176 -206 -351 -180 -116 -82 -79 -102 -172 -133 -217 -183 -147 -138 -135 -52 -120 0 0 0 0 0 0 0 0 0 0 0 -9 0 0 0 -13 0 0
0 0 0 -126 -79 -46 -91 -184 -292 -312 -38 -41 -59 -47 -91 -119 -61 -109 -81 -42 0 0 0 0 0 0 0 0 0 0 0 0 0 0 0 0 -19 0 0 -2 -9 -20 -32
-193 -243 -69 -44 -43 -44 -169 -225 -70 -95 -30 -16 -23 -35 -36 -32 -30 -103 0 -36 -25 -1 0 0 0 0 -1 -3 0 0 0 0 0 0 0 -8 0 0 -7 0 0 -5 -30
-35 -92 -70 -26 -31 -50 -199 -157 -63 -9 -16 -8 -38 -33 -16 -24 -11 0 0 0 0 0 0 0 0 0 0 0 0 0 0 0 0 0 0 0 -39 -23 -10 -6 -18 0 0
-34 -27 -46 -40 -34 -51 -81 -105 -58 -23 -15 -16 -16 -23 -21 -24 0 0 0 0 0 0 0 0 0 0 0 0 0 0 0 0 0 0 0 0 0 -37 -7 -11 -8 0 0
-53 -19 -12 -23 -21 -82 -96 -36 -22 -10 -43 -56 -65 -63 -72 -55 -122 0 0 0 0 0 0 0 0 0 0 0 0 0 0 0 0 0 0 0 0 -4 -12 0 0 0 0
-15 -40 -84 -79 -63 -48 -41 -39 -24 -39 -64 -58 -61 -70 -104 -159 0 0 0 0 0 0 0 0 0 0 0 0 0 0 0 0 0 0 0 0 0 0 0 0 0 0 0
-56 -76 -84 -48 -46 -44 -42 -49 -148 -144 -102 0 0 0 0 0 0 0 0 0 0 0 0 0 0 0 0 0 0 0 0 0 0 0 0 0 0 0 0 0 0 0 0
-128 -115 -66 -48 -58 -53 -87 -80 -33 0 0 0 0 0 0 0 0 0 0 0 0 0 0 0 0 0 0 0 0 0 0 0 0 0 0 0 0 0 0 0 0 -2 -1
-167 -167 -76 -62 -72 -79 -238 -42 -41 0 0 0 0 0 0 0 0 0 0 0 0 0 0 0 0 0 0 0 0 0 0 0 0 0 0 0 0 0 0 0 0 0 0
-67 -99 -45 -42 -55 -88 -186 -115 -24 0 0 0 0 0 0 0 0 0 0 0 0 0 0 0 0 0 0 0 0 0 0 0 0 0 0 0 0 0 0 0 0 0 0
-80 -115 -49 -39 -76 -92 -97 -130 -86 0 0 0 0 0 0 0 0 0 0 0 0 0 0 0 0 0 0 0 0 0 0 0 0 0 0 0 0 0 0 0 0 0 0
-169 -115 -54 -52 -91 -116 -92 -73 -83 0 0 0 0 0 0 0 0 0 0 0 0 0 0 0 0 0 0 0 0 0 0 0 0 0 0 0 0 0 0 0 0 0 0
-177 -126 -91 -72 -72 -85 -57 -23 -88 -21 0 0 0 0 0 0 0 0 0 0 0 0 0 0 0 0 0 0 0 0 0 0 0 0 0 0 0 0 0 0 0 0 0
-47 -33 -56 -17 -3 -12 -12 -21 -70 -65 -71 -35 -7 0 0 0 0 0 0 0 0 0 0 0 0 0 0 0 0 0 0 0 0 0 0 0 0 0 0 0 0 0 0
Wind_Speed
36 45 48 54 58 63 57 52 50 51 50 52 52 48 51 47 42 nan nan nan nan nan nan nan nan nan nan nan nan nan nan nan nan 22 24 26 27 26 28 29 28 25 29
45 49 53 49 65 61 62 56 56 52 52 57 52 47 52 45 41 35 nan 28 nan nan nan nan nan nan nan nan nan nan nan nan 22 23 24 26 26 26 28 25 22 23 24
44 45 48 53 52 51 52 53 53 50 55 57 49 48 48 nan nan 35 31 29 29 nan nan nan nan nan nan nan nan 21 22 25 26 29 28 nan nan 29 29 25 26 25 25
47 44 51 52 60 63 56 56 54 53 54 53 50 nan 47 nan nan 34 33 31 30 nan nan nan nan nan nan nan 24 27 29 30 27 22 nan nan nan 33 32 nan nan nan nan
46 48 53 55 52 54 57 56 54 52 53 52 52 51 42 35 29 32 33 32 35 nan nan nan nan nan nan 25 30 nan nan nan nan nan nan 22 nan nan 29 nan nan nan nan
51 46 48 46 50 50 52 50 48 53 55 54 51 51 37 24 26 31 30 34 nan nan nan nan nan nan 31 30 32 nan nan nan nan nan nan nan nan 25 nan 28 nan nan nan
42 41 40 42 40 51 52 49 54 54 52 53 47 34 15 18 26 28 29 27 28 30 30 nan 31 31 31 31 35 nan nan nan nan nan nan nan nan 28 nan nan nan nan nan
nan 46 29 40 51 45 50 48 49 49 50 43 18 7 16 19 22 24 25 25 26 28 30 32 34 34 31 26 29 35 nan nan nan nan nan nan 28 31 33 32 30 28 27
nan nan nan nan nan 47 40 40 38 32 29 13 5 10 14 16 22 21 23 23 28 30 nan nan nan nan nan nan 31 35 nan nan nan nan nan nan 34 38 38 38 37 35 35
nan nan nan nan nan 31 12 19 21 13 4 4 6 8 15 17 18 19 21 28 28 nan nan nan nan nan nan 36 31 nan nan nan nan nan nan nan 32 nan nan nan nan nan nan
25 nan nan nan 19 10 11 3 11 5 8 7 6 10 nan nan nan nan nan nan nan nan nan nan nan nan nan nan nan nan nan nan nan nan nan nan nan nan nan nan nan nan nan
nan nan nan nan 35 16 12 8 nan nan nan nan nan 10 nan nan nan nan nan nan nan nan nan nan nan nan nan nan nan nan nan nan nan nan nan nan nan nan nan nan nan nan nan
nan nan nan nan nan 17 nan nan nan nan 5 4 11 14 nan nan nan nan nan nan nan nan nan nan nan nan nan nan nan nan nan nan nan nan nan nan nan nan nan nan nan nan nan
nan nan nan 18 14 17 nan nan nan nan 3 6 7 15 17 18 nan nan nan nan nan nan nan nan nan nan nan nan nan nan nan nan nan nan nan nan nan nan nan nan nan nan nan
7 9 nan 13 9 10 nan nan nan 3 4 6 7 15 16 19 nan nan nan nan nan nan nan nan nan nan nan nan nan nan nan nan nan nan nan nan nan nan nan nan nan nan nan
7 9 10 6 8 6 nan nan 4 7 6 7 12 17 20 nan nan nan nan nan nan nan nan nan nan nan nan nan nan nan nan nan nan nan nan nan nan nan nan nan nan nan nan
7 8 5 8 7 4 8 8 7 8 9 15 15 16 nan nan nan nan nan nan nan nan nan nan nan nan nan nan nan nan nan nan nan nan nan nan nan nan nan nan nan nan nan
11 8 5 9 9 11 13 10 10 8 14 17 13 10 nan nan nan nan nan nan nan nan nan nan nan nan nan nan nan nan nan nan nan nan nan nan nan nan nan nan nan nan nan
15 12 13 15 15 17 17 14 nan nan nan nan nan nan nan nan nan nan nan nan nan nan nan nan nan nan nan nan nan nan nan nan nan nan nan nan nan nan nan nan nan nan nan
15 16 19 19 20 20 21 nan nan nan nan nan nan nan nan nan nan nan nan nan nan nan nan nan nan nan nan nan nan nan nan nan nan nan nan nan nan nan nan nan nan nan nan
18 24 25 22 19 19 nan nan nan nan nan nan nan nan nan nan nan nan nan nan nan nan nan nan nan nan nan nan nan nan nan nan nan nan nan nan nan nan nan nan nan nan nan
27 26 24 22 20 13 nan nan nan nan nan nan nan nan nan nan nan nan nan nan nan nan nan nan nan nan nan nan nan nan nan nan nan nan nan nan nan nan nan nan nan nan nan
28 30 27 25 23 13 nan nan nan nan nan nan nan nan nan nan nan nan nan nan nan nan nan nan nan nan nan nan nan nan nan nan nan nan nan nan nan nan nan nan nan nan nan
30 28 26 24 21 15 21 22 nan nan nan nan nan nan nan nan nan nan nan nan nan nan nan nan nan nan nan nan nan nan nan nan nan nan nan nan nan nan nan nan nan nan nan
28 23 22 18 18 16 24 31 nan nan nan nan nan nan nan nan nan nan nan nan nan nan nan nan nan nan nan nan nan nan nan nan nan nan nan nan nan nan nan nan nan nan nan
19 15 12 16 18 22 28 34 nan nan nan nan nan nan nan nan nan nan nan nan nan nan nan nan nan nan nan nan nan nan nan nan nan nan nan nan nan nan nan nan nan nan nan
Wind_Direction
290 298 292 290 286 279 274 274 278 281 283 283 285 282 287 284 282 nan nan nan nan nan nan nan nan nan nan nan nan nan nan nan nan 272 270 265 256 252 254 261 263 266 263
289 291 292 285 297 289 274 271 272 278 282 282 287 281 287 281 279 258 nan 253 nan nan nan nan nan nan nan nan nan nan nan nan 282 287 281 268 264 262 250 246 258 265 262
287 284 285 293 296 292 296 289 281 279 280 285 281 280 282 nan nan 256 253 253 259 nan nan nan nan nan nan nan nan 248 252 277 291 291 279 nan nan 264 259 255 257 259 261
285 285 283 287 279 285 283 285 281 282 282 282 280 nan 277 nan nan 256 255 258 264 nan nan nan nan nan nan nan 264 249 263 269 274 264 nan nan nan 265 262 nan nan nan nan
278 276 281 286 287 283 280 280 281 280 282 281 279 280 272 271 268 257 256 259 262 nan nan nan nan nan nan 264 263 nan nan nan nan nan nan 272 nan nan 264 nan nan nan nan
274 278 281 286 287 283 279 279 273 274 282 277 271 274 271 270 263 251 254 257 nan nan nan nan nan nan 277 267 262 nan nan nan nan nan nan nan nan 279 nan 267 nan nan nan
266 273 277 283 296 295 282 275 277 280 283 271 270 269 274 269 258 253 259 266 271 272 276 nan 282 282 276 275 271 nan nan nan nan nan nan nan nan 274 nan nan nan nan nan
nan 262 261 262 268 270 265 271 276 272 264 261 265 297 270 265 264 266 270 273 279 283 281 284 285 288 277 285 285 282 nan nan nan nan nan nan 272 272 271 272 278 278 274
nan nan nan nan nan 217 219 250 246 243 255 257 254 271 268 261 260 270 281 296 284 285 nan nan nan nan nan nan 292 289 nan nan nan nan nan nan 268 264 269 271 269 269 268
nan nan nan nan nan 200 211 231 234 237 213 214 242 262 261 277 288 298 296 279 295 nan nan nan nan nan nan 295 298 nan nan nan nan nan nan nan 275 nan nan nan nan nan nan
266 nan nan nan 260 262 251 242 241 171 123 184 246 280 nan nan nan nan nan nan nan nan nan nan nan nan nan nan nan nan nan nan nan nan nan nan nan nan nan nan nan nan nan
nan nan nan nan 261 256 261 269 nan nan nan nan nan 235 nan nan nan nan nan nan nan nan nan nan nan nan nan nan nan nan nan nan nan nan nan nan nan nan nan nan nan nan nan
nan nan nan nan nan 43 nan nan nan nan 115 195 251 268 nan nan nan nan nan nan nan nan nan nan nan nan nan nan nan nan nan nan nan nan nan nan nan nan nan nan nan nan nan
nan nan nan 53 53 80 nan nan nan nan 192 259 294 311 295 292 nan nan nan nan nan nan nan nan nan nan nan nan nan nan nan nan nan nan nan nan nan nan nan nan nan nan nan
100 96 nan 92 84 97 nan nan nan 173 285 288 285 309 309 305 nan nan nan nan nan nan nan nan nan nan nan nan nan nan nan nan nan nan nan nan nan nan nan nan nan nan nan
103 89 84 100 79 44 nan nan 300 273 297 262 285 308 305 nan nan nan nan nan nan nan nan nan nan nan nan nan nan nan nan nan nan nan nan nan nan nan nan nan nan nan nan
55 57 49 25 14 337 301 308 312 262 278 305 303 302 nan nan nan nan nan nan nan nan nan nan nan nan nan nan nan nan nan nan nan nan nan nan nan nan nan nan nan nan nan
20 21 6 343 330 323 315 312 300 295 304 314 302 304 nan nan nan nan nan nan nan nan nan nan nan nan nan nan nan nan nan nan nan nan nan nan nan nan nan nan nan nan nan
1 347 339 338 336 326 326 322 nan nan nan nan nan nan nan nan nan nan nan nan nan nan nan nan nan nan nan nan nan nan nan nan nan nan nan nan nan nan nan nan nan nan nan
352 343 339 343 339 335 320 nan nan nan nan nan nan nan nan nan nan nan nan nan nan nan nan nan nan nan nan nan nan nan nan nan nan nan nan nan nan nan nan nan nan nan nan
359 344 344 340 342 325 nan nan nan nan nan nan nan nan nan nan nan nan nan nan nan nan nan nan nan nan nan nan nan nan nan nan nan nan nan nan nan nan nan nan nan nan nan
351 347 342 338 342 336 nan nan nan nan nan nan nan nan nan nan nan nan nan nan nan nan nan nan nan nan nan nan nan nan nan nan nan nan nan nan nan nan nan nan nan nan nan
343 344 343 341 343 340 nan nan nan nan nan nan nan nan nan nan nan nan nan nan nan nan nan nan nan nan nan nan nan nan nan nan nan nan nan nan nan nan nan nan nan nan nan
340 346 344 338 329 326 316 309 nan nan nan nan nan nan nan nan nan nan nan nan nan nan nan nan nan nan nan nan nan nan nan nan nan nan nan nan nan nan nan nan nan nan nan
339 341 340 324 316 316 312 315 nan nan nan nan nan nan nan nan nan nan nan nan nan nan nan nan nan nan nan nan nan nan nan nan nan nan nan nan nan nan nan nan nan nan nan
333 343 328 321 307 309 306 304 nan nan nan nan nan nan nan nan nan nan nan nan nan nan nan nan nan nan nan nan nan nan nan nan nan nan nan nan nan nan nan nan nan nan nan